Time,TemperatureF,DewpointF,PressureIn,WindDirection,WindDirectionDegrees,WindSpeedMPH,WindSpeedGustMPH,Humidity,HourlyPrecipIn,Conditions,Clouds,dailyrainin,SoftwareType,DateUTC
2013-06-17 00:00:00,62.0,-99.9,-100.00,SSW,198,3.0,-999.0,-999,-99.99,,,-99.99,,2013-06-17 07:00:00,
2013-06-17 01:00:00,61.0,-99.9,-100.00,SSW,204,2.0,-999.0,-999,-99.99,,,-99.99,,2013-06-17 08:00:00,
2013-06-17 02:00:00,61.0,-99.9,-100.00,South,188,3.0,-999.0,-999,-99.99,,,-99.99,,2013-06-17 09:00:00,
2013-06-17 03:00:00,61.0,-99.9,-100.00,South,186,5.0,-999.0,-999,-99.99,,,-99.99,,2013-06-17 10:00:00,
2013-06-17 04:00:00,59.0,-99.9,-100.00,South,172,6.0,-999.0,-999,-99.99,,,-99.99,,2013-06-17 11:00:00,
2013-06-17 05:00:00,59.0,-99.9,-100.00,South,182,3.0,-999.0,-999,-99.99,,,-99.99,,2013-06-17 12:00:00,
2013-06-17 06:00:00,59.0,-99.9,-100.00,South,180,3.0,-999.0,-999,-99.99,,,-99.99,,2013-06-17 13:00:00,
2013-06-17 07:00:00,60.0,-99.9,-100.00,South,185,3.0,-999.0,-999,-99.99,,,-99.99,,2013-06-17 14:00:00,
2013-06-17 08:00:00,61.0,-99.9,-100.00,SSW,202,2.0,-999.0,-999,-99.99,,,-99.99,,2013-06-17 15:00:00,
2013-06-17 09:00:00,63.0,-99.9,-100.00,South,190,3.0,-999.0,-999,-99.99,,,-99.99,,2013-06-17 16:00:00,
2013-06-17 09:54:00,63.0,-99.9,-100.00,South,190,3.0,-999.0,-999,-99.99,,,-99.99,,2013-06-17 16:54:00,
2013-06-17 10:00:00,65.0,-99.9,-100.00,South,191,5.0,-999.0,-999,-99.99,,,-99.99,,2013-06-17 17:00:00,
2013-06-17 11:00:00,69.0,-99.9,-100.00,South,189,6.0,-999.0,-999,-99.99,,,-99.99,,2013-06-17 18:00:00,
2013-06-17 11:53:00,69.0,-99.9,-100.00,South,189,6.0,-999.0,-999,-99.99,,,-99.99,,2013-06-17 18:53:00,
2013-06-17 12:00:00,72.0,-99.9,-100.00,SSW,192,6.0,-999.0,-999,-99.99,,,-99.99,,2013-06-17 19:00:00,
2013-06-17 12:54:00,72.0,-99.9,-100.00,SSW,192,6.0,-999.0,-999,-99.99,,,-99.99,,2013-06-17 19:54:00,
2013-06-17 13:00:00,74.0,-99.9,-100.00,South,183,5.0,-999.0,-999,-99.99,,,-99.99,,2013-06-17 20:00:00,
2013-06-17 14:00:00,75.0,-99.9,-100.00,SSW,192,6.0,-999.0,-999,-99.99,,,-99.99,,2013-06-17 21:00:00,
2013-06-17 15:00:00,78.0,-99.9,-100.00,WSW,246,6.0,-999.0,-999,-99.99,,,-99.99,,2013-06-17 22:00:00,
2013-06-17 15:54:00,78.0,-99.9,-100.00,WSW,246,6.0,-999.0,-999,-99.99,,,-99.99,,2013-06-17 22:54:00,
2013-06-17 16:00:00,79.0,-99.9,-100.00,SW,223,6.0,-999.0,-999,-99.99,,,-99.99,,2013-06-17 23:00:00,
2013-06-17 16:53:00,79.0,-99.9,-100.00,SW,223,6.0,-999.0,-999,-99.99,,,-99.99,,2013-06-17 23:53:00,
2013-06-17 17:00:00,79.0,-99.9,-100.00,South,179,6.0,-999.0,-999,-99.99,,,-99.99,,2013-06-18 00:00:00,
2013-06-17 18:00:00,80.0,-99.9,-100.00,West,281,3.0,-999.0,-999,-99.99,,,-99.99,,2013-06-18 01:00:00,
2013-06-17 19:00:00,80.0,-99.9,-100.00,WSW,252,5.0,-999.0,-999,-99.99,,,-99.99,,2013-06-18 02:00:00,
2013-06-17 19:53:00,80.0,-99.9,-100.00,WSW,252,5.0,-999.0,-999,-99.99,,,-99.99,,2013-06-18 02:53:00,
2013-06-17 20:00:00,72.0,-99.9,-100.00,SW,235,9.0,-999.0,-999,-99.99,,,-99.99,,2013-06-18 03:00:00,
2013-06-17 20:53:00,72.0,-99.9,-100.00,SW,235,9.0,-999.0,-999,-99.99,,,-99.99,,2013-06-18 03:53:00,
2013-06-17 21:00:00,66.0,-99.9,-100.00,SW,226,12.0,-999.0,-999,-99.99,,,-99.99,,2013-06-18 04:00:00,
2013-06-17 22:00:00,63.0,-99.9,-100.00,SW,222,8.0,-999.0,-999,-99.99,,,-99.99,,2013-06-18 05:00:00,
2013-06-17 23:00:00,62.0,-99.9,-100.00,SE,146,3.0,-999.0,-999,-99.99,,,-99.99,,2013-06-18 06:00:00,